Location: Burbank
(38.7788°N, 114.0429°W)
Time: 23:25:13
(UTC+00:00)

S-56A Canister/Altair - Pass Details

Date: 15 May 2026
Orbit: 633 x 2484 km, 38.9° (Epoch: 1 June)

Event Time Altitude Azimuth Distance (km) Brightness Sun altitude
Rises 08:25:07 0° 281° (W) 3,059 - -31.0°
Reaches altitude 10° 08:27:15 10° 276° (W) 2,246 - -30.9°
Maximum altitude 08:32:15 54° 200° (SSW) 1,081 - -30.6°
Drops below altitude 10° 08:39:21 10° 125° (SE) 3,155 - -30.2°
Exits shadow 08:40:19 - 123° (ESE) 3,510 10.7 -30.2°
Sets 08:42:52 0° 121° (ESE) 4,428 11.3 -30.0°
